Regional Weather Roundup
Issued by NWS

Home | Current Version | Previous Version | Graphics & Text | Print | Product List | Glossary On
Versions: 1 2 3 4 5 6 7 8 9 10 11 12 13 14 15 16 17 18 19 20 21 22 23 24 25 26 27 28 29 30 31 32 33 34 35 36 37 38 39 40 41 42 43 44 45 46 47 48 49 50
000
ASUS43 KOAX 050002
RWRNE

WEATHER ROUNDUP FOR NEBRASKA
NATIONAL WEATHER SERVICE OMAHA NE
700 PM CDT SAT JUL 04 2015

NOTES: SATELLITE DATA IS BEING USED TO AUGMENT CLOUD COVER ABOVE
       12000 FEET.
       "FAIR" INDICATES FEW OR NO CLOUDS BELOW 12,000 FEET WITH NO
       SIGNIFICANT WEATHER AND/OR OBSTRUCTIONS TO VISIBILITY.

  * THESE STATIONS DO NOT REPORT WEATHER SUCH AS RAIN...SNOW OR FOG.

NEZ001>004-019>022-054>056-050100-
NEBRASKA PANHANDLE

CITY           SKY/WX    TMP DP  RH WIND       PRES   REMARKS
SCOTTSBLUFF    PTSUNNY   93  50  23 SE13      29.80F HX  90
6HR MIN TEMP:  85; 6HR MAX TEMP:  97;

ALLIANCE       CLOUDY    81  60  48 S9        29.85R
6HR MIN TEMP:  79; 6HR MAX TEMP:  90;

CHADRON        PTSUNNY   90  62  39 SW10      29.79S HX  90
6HR MIN TEMP:  86; 6HR MAX TEMP:  95;

KIMBALL          N/A    N/A N/A N/A MISG        N/A
SIDNEY         SUNNY     92  56  29 SE17G23   29.88F HX  90
6HR MIN TEMP:  87; 6HR MAX TEMP:  94;

$$

NEZ057>060-069>072-079>082-050100-
SOUTHWEST NEBRASKA

CITY           SKY/WX    TMP DP  RH WIND       PRES   REMARKS
NORTH PLATTE   SUNNY     89  62  40 SE12G23   29.84F
6HR MIN TEMP:  84; 6HR MAX TEMP:  91;

IMPERIAL       SUNNY     94  56  27 SE16      29.84S HX  92
6HR MIN TEMP:  88; 6HR MAX TEMP:  97;

LEXINGTON      SUNNY     88  65  47 SE17      29.87F HX  90
MCCOOK         SUNNY     92  60  34 S14G25    29.84S HX  91
6HR MIN TEMP:  88; 6HR MAX TEMP:  96;

$$

NEZ005>010-023>029-035>040-094-050100-
NORTH CENTRAL NEBRASKA

CITY           SKY/WX    TMP DP  RH WIND       PRES   REMARKS
VALENTINE      SUNNY     89  64  43 S17G28    29.80F HX  90
6HR MIN TEMP:  86; 6HR MAX TEMP:  92;

AINSWORTH      SUNNY     86  66  51 S17G23    29.84S
BROKEN BOW     SUNNY     86  66  51 S18G26    29.88S
6HR MIN TEMP:  83; 6HR MAX TEMP:  87;

ORD            SUNNY     85  65  51 S10G21    29.86F
6HR MIN TEMP:  82; 6HR MAX TEMP:  87;

$$

NEZ041-046>049-061>064-073>077-083>087-050100-
SOUTH CENTRAL NEBRASKA

CITY           SKY/WX    TMP DP  RH WIND       PRES   REMARKS
GRAND ISLAND   SUNNY     82  65  56 SE14      29.90F
6HR MIN TEMP:  81; 6HR MAX TEMP:  85;

AURORA         SUNNY     82  64  53 SE14      29.90F
HASTINGS       SUNNY     84  65  52 SE13G21   29.90F
6HR MIN TEMP:  80; 6HR MAX TEMP:  86;

KEARNEY *      SUNNY     84  64  51 S17       29.89F
$$

NEZ011>018-030>034-042>045-050100-
NORTHEAST NEBRASKA

CITY           SKY/WX    TMP DP  RH WIND       PRES   REMARKS
NORFOLK        SUNNY     80  65  59 S12       29.89F
6HR MIN TEMP:  77; 6HR MAX TEMP:  82;

BLAIR          MOSUNNY   80  62  55 SE8       29.92F
COLUMBUS *     SUNNY     81  64  57 SE10      29.91F
FREMONT        MOSUNNY   82  63  52 SE9       29.91F
TEKAMAH        MOSUNNY   82  63  52 S10       29.91F
6HR MIN TEMP:  81; 6HR MAX TEMP:  85;

$$

NEZ050>053-065>068-078-088>093-050100-
SOUTHEAST NEBRASKA

CITY           SKY/WX    TMP DP  RH WIND       PRES   REMARKS
LINCOLN        SUNNY     82  63  52 S10       29.91F
6HR MIN TEMP:  78; 6HR MAX TEMP:  84;

OMAHA EPPLEY   PTSUNNY   81  61  50 S12       29.92F
6HR MIN TEMP:  79; 6HR MAX TEMP:  83;

FALLS CITY     PTSUNNY   81  64  56 SE9       29.92F
6HR MIN TEMP:  79; 6HR MAX TEMP:  83;

$$

NEZ044-045-051>053-067-050100-
OMAHA AREA

CITY           SKY/WX    TMP DP  RH WIND       PRES   REMARKS
OMAHA EPPLEY   PTSUNNY   81  61  50 S12       29.92F
6HR MIN TEMP:  79; 6HR MAX TEMP:  83;

BLAIR          MOSUNNY   80  62  55 SE8       29.92F
FREMONT        MOSUNNY   82  63  52 SE9       29.91F
OFFUTT AFB     MOSUNNY   80  64  59 SE10      29.91F
$$


USA.gov is the U.S. government's official web portal to all federal, state and local government web resources and services.